Vorticity
nan nan nan nan nan nan nan nan nan nan nan nan nan nan nan nan nan nan nan nan nan nan nan nan nan nan nan nan nan nan nan nan nan
nan 8 7 7 7 6 6 6 8 10 8 4 5 6 5 3 3 4 6 10 4 5 5 5 4 5 5 5 5 5 5 5 nan
nan 8 7 7 7 7 7 7 7 8 9 7 5 6 5 3 5 5 7 12 5 6 4 5 5 5 5 5 5 5 6 6 nan
nan 7 12 9 8 8 8 8 7 7 7 9 8 8 5 2 6 7 9 11 4 4 5 6 5 5 5 5 5 6 6 5 nan
nan 8 6 7 10 9 9 9 9 9 8 8 9 9 7 7 5 6 8 8 6 5 6 5 5 6 5 5 6 5 5 6 nan
nan 7 5 6 8 8 9 8 10 11 12 11 9 7 7 10 9 9 10 5 6 6 5 6 7 5 6 6 5 5 5 6 nan
nan 6 7 8 8 9 10 10 12 9 8 14 9 4 6 8 7 9 15 7 5 6 5 7 7 7 6 7 6 6 6 6 nan
nan 10 7 9 9 8 8 10 8 8 7 6 6 5 8 8 9 10 10 8 6 6 6 6 7 8 6 5 6 6 7 6 nan
nan 8 8 8 7 7 8 7 7 8 7 7 8 8 6 5 8 13 11 9 7 6 6 5 6 6 7 5 6 6 7 7 nan
nan 8 8 8 8 8 8 7 8 9 9 8 8 7 8 6 5 11 12 11 9 8 7 5 6 7 6 5 6 7 7 6 nan
nan 8 8 8 8 8 8 8 8 9 9 9 10 9 8 8 5 7 13 14 9 9 7 6 6 8 8 7 5 7 7 7 nan
nan 10 8 8 7 9 9 9 9 9 9 10 10 10 10 9 8 7 9 13 13 12 10 8 7 6 8 9 7 7 7 7 nan
nan 9 7 8 9 9 9 9 9 9 8 9 9 10 11 11 10 7 8 8 13 17 14 10 10 8 8 7 7 7 7 8 nan
nan 9 7 9 9 9 9 8 8 9 10 9 8 8 8 12 13 9 9 10 7 10 17 17 12 11 10 9 7 7 7 8 nan
nan 9 8 9 9 8 8 9 10 10 10 10 9 10 10 9 8 11 12 10 7 8 8 13 18 17 10 10 8 7 7 5 nan
nan 10 9 9 8 8 9 9 10 10 11 11 11 10 10 12 12 11 10 9 12 7 9 6 9 18 19 12 10 7 8 8 nan
nan 9 8 9 9 7 9 11 12 9 8 10 11 12 11 14 14 12 11 11 10 11 9 8 6 7 16 21 16 12 11 8 nan
nan 9 9 9 9 8 7 9 11 12 6 11 15 9 6 10 11 16 18 14 10 11 13 12 10 6 10 12 15 17 14 13 nan
nan 8 9 10 9 8 8 8 9 11 12 11 9 9 13 14 5 14 22 16 18 16 14 14 16 18 13 15 19 19 15 13 nan
nan nan nan nan nan nan nan nan nan nan nan nan nan nan nan nan nan nan nan nan nan nan nan nan nan nan nan nan nan nan nan nan nan
CAPE
754 647 962 1088 998 774 402 302 837 1005 746 535 367 468 480 58 33 1 1 0 0 0 0 0 0 0 0 0 1 0 0 2 18
769 879 970 885 905 911 1070 991 512 1103 833 634 390 683 814 275 29 1 0 0 0 0 1 0 0 0 2 2 1 0 0 0 17
660 866 921 684 661 840 921 1075 980 1132 973 921 748 687 485 83 22 0 0 0 0 0 3 2 1 4 5 4 2 1 1 0 0
0 110 340 630 836 873 867 809 863 849 955 1147 693 550 392 5 5 0 0 1 0 0 87 36 2 5 9 10 7 5 2 2 1
0 0 0 0 287 560 722 831 852 1049 1067 940 799 475 179 290 19 4 0 1 9 14 73 181 7 7 9 9 11 12 10 4 2
0 0 0 0 0 5 198 477 778 791 642 666 626 361 138 640 501 134 0 0 0 14 45 631 176 10 11 12 12 8 11 9 5
0 0 0 0 0 0 0 81 338 307 320 206 262 640 428 508 729 478 51 0 0 0 60 867 839 444 304 152 16 14 9 10 7
0 0 0 0 0 0 0 2 78 398 589 575 449 338 389 500 783 575 110 0 0 0 17 770 1041 1040 642 249 16 17 18 11 13
0 0 0 0 0 0 0 0 0 0 85 331 475 569 650 519 662 596 265 129 67 21 0 628 1056 1058 763 258 343 192 199 111 24
0 0 0 0 0 0 0 0 0 0 0 3 200 392 664 632 698 661 326 76 127 125 2 62 626 840 778 655 717 99 333 222 154
0 0 0 0 0 0 0 0 0 0 0 0 0 38 349 672 732 849 755 16 119 250 184 75 267 659 821 804 983 681 445 398 272
0 0 0 0 0 0 0 0 0 0 0 0 0 0 3 289 623 856 886 748 5 58 375 626 595 574 985 1039 1085 887 636 544 464
0 0 0 0 0 0 0 0 0 2 0 0 0 0 0 11 302 699 765 950 915 192 102 552 796 761 566 709 1211 1226 816 586 537
0 0 0 1 2 1 2 2 4 4 2 2 0 0 0 6 119 407 682 713 719 711 514 28 188 397 637 519 1021 1233 1066 794 648
0 0 2 5 5 2 3 9 5 8 5 3 3 7 8 5 89 479 680 667 515 660 715 638 180 12 318 582 659 1016 1174 925 626
0 0 1 3 1 0 5 5 10 3 9 26 16 15 7 2 4 67 948 1001 954 874 782 777 505 152 30 155 341 317 334 739 991
0 0 0 0 1 4 5 0 3 7 6 52 63 21 2 0 5 151 639 998 1332 1005 968 587 304 176 349 19 92 202 182 400 1035
0 0 0 1 3 5 5 3 5 15 9 9 58 29 23 73 116 278 711 930 1106 1007 732 408 372 146 54 15 30 51 237 546 799
0 0 0 0 0 2 4 5 7 4 12 3 7 18 108 66 7 0 284 775 991 896 511 450 326 171 36 18 45 29 7 208 390
0 0 0 0 0 0 0 3 3 4 7 5 13 9 18 6 9 6 247 317 4 8 6 2 5 2 7 4 7 2 3 101 292